Voltar ao catálogo

TITAN 3C TRANSTAGE DEB

AtivoMEO
NORAD 38703·DEBRIS·🇺🇸 United States

Lançado Sep 26, 1968 de Cape Canaveral Space Force Station

Loading…

Próximas Passagens (próximas 24 horas)

TLE

AtualizadoSource: Space-Track

Época: Sep 13, 2026, 09:08 UTC

1 38703U 68081AD  26256.38106829 -.00000153  00000-0  00000-0 0  9992
2 38703   3.0829  77.4491 0239136  75.1561 287.9362  1.05420839 48399

Acompanhe TITAN 3C TRANSTAGE DEB em tempo real com AllMySat

Download on the App Store